Mazatlan - G. Buelna, Mexico

7:32 PM MDT on July 25, 2016 (GMT -0600)
Gen Rafael Buelna International

Weather History for MMMZ - April, 2013

Change the Weather History Date:

Monday, April 22, 2013

  Actual Average Record
Temperature  
Mean Temperature 68 °F -  
Max Temperature 80 °F 83 °F 89 °F (1999)
Min Temperature 55 °F 57 °F 51 °F (1998)
Cooling Degree Days 2    
Growing Degree Days 18 (Base 50)    
Moisture  
Dew Point 57 °F    
Average Humidity 66    
Maximum Humidity 90    
Minimum Humidity 45    
Precipitation  
Precipitation 0.00 in - - ()
Sea Level Pressure  
Sea Level Pressure 29.91 in    
Wind  
Wind Speed 6 mph ()    
Max Wind Speed 17 mph    
Max Gust Speed -    
Visibility 10.6 miles    
Events      
Averages and records for this station are not official NWS values.
T = Trace of Precipitation, MM = Missing Value Source: Averaged Metar Reports

Daily Weather History Graph

Daily Weather History Graph

Search for Another Location

Airport or City:

Trip Planner

Search our weather history database for the weather conditions in past years. The results will help you decide how hot, cold, wet, or windy it might be!

Date:

Astronomy

Apr. 22, 2013 Rise Set
Actual Time 6:38 AM MDT 7:28 PM MDT
Civil Twilight 6:15 AM MDT 7:52 PM MDT
Nautical Twilight 5:47 AM MDT 8:19 PM MDT
Astronomical Twilight 5:19 AM MDT 8:47 PM MDT
Moon 4:39 PM MDT (4/22) 4:11 AM MDT (4/22)
Length of Visible Light 13h 37m
Length of Day
12h 50m
Waxing Gibbous, 88% of the Moon is Illuminated
Apr 22
Waxing Gibbous
Apr 25
Full
May 2
Last Quarter
May 9
New
May 17
First Quarter

Hourly Weather History & Observations

Time (MDT) Temp. Heat Index Dew Point Humidity Pressure Visibility Wind Dir Wind Speed Gust Speed Precip Events Conditions
12:00 AM 71 °F - 66 °F 80% 29.98 in - NW 4.5 mph - -  
12:44 AM 62.6 °F - 53.6 °F 72% 29.96 in 10.0 mi ENE 5.8 mph - N/A   Clear
1:42 AM 60.8 °F - 51.8 °F 72% 29.94 in 10.0 mi NW 6.9 mph - N/A   Clear
2:48 AM 59.0 °F - 51.8 °F 77% 29.92 in 8.0 mi NE 8.1 mph - N/A   Clear
3:00 AM 68 °F - 62 °F 75% 29.94 in - NNW 2.2 mph - -  
3:44 AM 57.2 °F - 50.0 °F 77% 29.91 in 8.0 mi NNE 5.8 mph - N/A   Clear
4:43 AM 57.2 °F - 50.0 °F 77% 29.91 in 8.0 mi NE 8.1 mph - N/A   Partly Cloudy
5:46 AM 55.4 °F - 50.0 °F 82% 29.91 in 8.0 mi Calm Calm - N/A   Partly Cloudy
6:00 AM 66 °F - 64 °F 90% 29.92 in - ENE 2.2 mph - -  
6:43 AM 55.4 °F - 48.2 °F 77% 29.92 in 10.0 mi NE 6.9 mph - N/A   Scattered Clouds
7:45 AM 60.8 °F - 51.8 °F 72% 29.94 in 8.0 mi NNE 6.9 mph - N/A   Mostly Cloudy
8:42 AM 66.2 °F - 55.4 °F 68% 29.93 in 10.0 mi ENE 11.5 mph - N/A   Mostly Cloudy
9:00 AM 75 °F - 64 °F 59% 29.96 in - ESE 2.2 mph - -  
9:44 AM 71.6 °F - 57.2 °F 60% 29.95 in 12.0 mi SSE 5.8 mph - N/A   Mostly Cloudy
10:47 AM 75.2 °F - 57.2 °F 53% 29.95 in 12.0 mi South 6.9 mph - N/A   Mostly Cloudy
11:40 AM 75.2 °F - 57.2 °F 53% 29.93 in 12.0 mi SW 10.4 mph - N/A   Mostly Cloudy
12:00 PM 80 °F - 65 °F 51% 29.96 in - WSW 6.7 mph - -  
12:41 PM 75.2 °F - 57.2 °F 53% 29.92 in 14.0 mi SW 10.4 mph - N/A   Mostly Cloudy
1:41 PM 78.8 °F - 59.0 °F 51% 29.91 in 14.0 mi WSW 13.8 mph - N/A   Mostly Cloudy
2:41 PM 80.6 °F 80.8 °F 57.2 °F 45% 29.88 in 12.0 mi SW 13.8 mph - N/A   Mostly Cloudy
3:00 PM 80 °F - 66 °F 54% 29.90 in - West 8.9 mph - -  
3:46 PM 78.8 °F - 59.0 °F 51% 29.85 in 12.0 mi SW 17.3 mph - N/A   Scattered Clouds
4:43 PM 78.8 °F - 59.0 °F 51% 29.84 in 12.0 mi SW 11.5 mph - N/A   Partly Cloudy
5:46 PM 75.2 °F - 57.2 °F 53% 29.85 in 12.0 mi WSW 15.0 mph - N/A   Partly Cloudy
6:00 PM 78 °F - 66 °F 57% 29.87 in - West 8.9 mph - -  
6:44 PM 73.4 °F - 57.2 °F 57% 29.85 in 12.0 mi WSW 13.8 mph - N/A   Partly Cloudy
7:44 PM 69.8 °F - 57.2 °F 64% 29.86 in 10.0 mi West 9.2 mph - N/A   Partly Cloudy
8:42 PM 66.2 °F - 55.4 °F 68% 29.88 in 10.0 mi West 6.9 mph - N/A   Partly Cloudy
9:00 PM 72 °F - 67 °F 78% 29.90 in - West 4.5 mph - -  
9:50 PM 62.6 °F - 53.6 °F 72% 29.91 in 10.0 mi SW 5.8 mph - N/A   Partly Cloudy
10:48 PM 60.8 °F - 53.6 °F 77% 29.92 in 10.0 mi ESE 6.9 mph - N/A   Clear
11:43 PM 60.8 °F - 53.6 °F 77% 29.92 in 10.0 mi East 6.9 mph - N/A   Clear